Miscellaneous Local Product
Issued by NWS Hastings, NE

Home | Current Version | Previous Version | Graphics & Text | Print | Product List | Glossary On
Versions: 1 2 3 4 5 6 7 8 9 10 11 12 13 14 15 16 17 18 19 20 21 22 23 24 25 26 27 28 29 30 31 32 33 34 35 36 37 38 39 40 41 42 43 44 45 46 47 48 49 50
131
AXUS43 KGID 210002
MISGRI

GID CWA HOURLY WEATHER ROUNDUP
NATIONAL WEATHER SERVICE HASTINGS NE
600 PM CST MON FEB 20 2017

NOTE: "FAIR" INDICATES FEW OR NO CLOUDS BELOW 12,000 FEET WITH NO
SIGNIFICANT WEATHER AND/OR OBSTRUCTIONS TO VISIBILITY.

...SOUTH CENTRAL NEBRASKA...

CITY           SKY/WX    TMP DP  RH WIND       PRES   REMARKS
GRAND ISLAND   CLEAR     57  37  47 N13       29.91R
HASTINGS       CLEAR     57  36  45 N9        29.92R
KEARNEY        CLEAR     59  32  36 NW8       29.93R
ORD            CLEAR     57  31  37 NW9       29.91R
YORK           CLEAR     55  41  58 NW12      29.90R
AURORA         CLEAR     55  39  56 N8        29.90R
LEXINGTON      CLEAR     58  31  35 NW7       29.94R
HOLDREGE       CLEAR     58  31  35 NW6       29.94R
HEBRON         PTCLDY    60  42  52 N12       29.88R

...NEBRASKA PANHANDLE...

CITY           SKY/WX    TMP DP  RH WIND       PRES   REMARKS
CHADRON        CLEAR     60  28  29 W14       29.85S
ALLIANCE       CLEAR     58  24  27 W14       29.90R
SCOTTSBLUFF    CLEAR     61  22  22 W10G21    29.92R
SIDNEY         CLEAR     58  21  24 NW8       29.95R

...WESTERN AND NORTH CENTRAL NEBRASKA...

CITY           SKY/WX    TMP DP  RH WIND       PRES   REMARKS
VALENTINE      CLEAR     57  23  26 W9        29.87S
AINSWORTH      CLEAR     56  28  34 W6        29.89R
ONEILL         CLEAR     56  36  47 W8        29.90R
BROKEN BOW     CLEAR     58  28  32 N9        29.92R
IMPERIAL       CLEAR     58  19  22 N6        29.96S
NORTH PLATTE   CLEAR     60  21  22 NW8       29.93R
MCCOOK         CLEAR     60  26  27 NW10      29.95R

...EASTERN NEBRASKA...

CITY           SKY/WX    TMP DP  RH WIND       PRES   REMARKS
NORFOLK        CLEAR     53  38  56 NW7       29.87R
SO SIOUX CITY  CLEAR     54  45  71 NW6       29.83R
TEKAMAH        PTCLDY    54  44  69 NW3       29.85R
COLUMBUS       CLEAR     55  41  58 NW6       29.90R
ALBION         CLEAR     58  37  45 NW7       29.89R
OMAHA EPPLEY   MOCLDY    55  46  71 NW8       29.85R
MILLARD        PTCLDY    60  48  64 NW8       29.85R
LINCOLN        CLEAR     58  43  57 N9        29.87R
NEBRASKA CITY  CLOUDY    58  55  87 SW7       29.84R
BEATRICE       CLEAR     59  47  64 NW10      29.85R
FALLS CITY     MOCLDY    59  53  80 SW6       29.85R

...NORTHERN KANSAS...

CITY           SKY/WX    TMP DP  RH WIND       PRES   REMARKS
GOODLAND       CLEAR     59  11  15 N9        29.99R
HILL CITY      CLEAR     62  33  33 N12       29.97R
NORTON         CLEAR     59  25  27 NW8       29.95R
SMITH CENTER   CLEAR     57  36  44 N10       29.93R
HAYS           CLEAR     61  36  39 N13       29.94R
RUSSELL        CLEAR     62  37  39 N20       29.90R
CONCORDIA      CLEAR     63  43  48 N13       29.86R
SALINA         CLEAR     66  40  38 NW10      29.85R
TOPEKA         CLOUDY    62  53  72 S7        29.87R



USA.gov is the U.S. government's official web portal to all federal, state and local government web resources and services.